Regional Weather Roundup
Issued by NWS

Home | Current Version | Previous Version | Graphics & Text | Print | Product List | Glossary On
Versions: 1 2 3 4 5 6 7 8 9 10 11 12 13 14 15 16 17 18 19 20 21 22 23 24 25 26 27 28 29 30 31 32 33 34 35 36 37 38 39 40 41 42 43 44 45 46 47 48 49 50
000
ASUS43 KLSX 020259
RWRMO

WEATHER SUMMARY FOR MISSOURI
NATIONAL WEATHER SERVICE SPRINGFIELD MO
1000 PM CDT WED APR 01 2015

NOTE: "FAIR" INDICATES FEW OR NO CLOUDS BELOW 12,000 FEET WITH NO
       SIGNIFICANT WEATHER AND/OR OBSTRUCTIONS TO VISIBILITY.
       CURRENT SKY AND/OR WEATHER CONDITIONS ARE NOT AVAILABLE FOR
       CHILLICOTHE AND FARMINGTON.

MOZ001>031-035>038-043-044-053-054-020400-
...NORTHERN AND WESTERN MISSOURI...

CITY           SKY/WX    TMP DP  RH WIND       PRES   REMARKS
KANSAS CTY INT CLEAR     62  56  80 SE20      29.68F
KANSAS C DTWN  PTCLDY    63  57  81 SE8G18    29.69F
LEE`S SUMMIT   PTCLDY    61  57  87 S13G22    29.71F
ST JOSEPH      CLEAR     64  55  72 S16       29.65F
CHILLICOTHE      N/A     61  54  77 S12G20    29.73F
KIRKSVILLE     PTCLDY    57  52  83 SE12      29.77F

$$
MOZ066>068-077>081-088>096-101>105-020400-
...SOUTHWEST MISSOURI...

CITY           SKY/WX    TMP DP  RH WIND       PRES   REMARKS
SPRINGFIELD    PTCLDY    63  60  90 S16       29.82S
JOPLIN         CLEAR     66  54  65 S12       29.78R

$$
MOZ032>034-039>042-045>050-055>058-069>072-020400-
...CENTRAL MISSOURI...

CITY           SKY/WX    TMP DP  RH WIND       PRES   REMARKS
COLUMBIA       CLOUDY    57  56  96 SE7       29.81F
JEFFERSON CITY MOCLDY    59  56  89 SE8       29.81F
ROLLA          MOCLDY    60  54  80 SE10      29.83S
SEDALIA        PTCLDY    58  55  90 SE13      29.77F
WHITEMAN AFB   CLEAR     59  57  94 S12       29.74F
OSAGE BEACH    CLOUDY    59  54  82 SE9       29.81F

$$
MOZ051-052-059>065-020400-
...EAST CENTRAL MISSOURI...

CITY           SKY/WX    TMP DP  RH WIND       PRES   REMARKS
ST LOUIS INTL  CLOUDY    69  40  34 SE12      29.85F
SPIRIT OF STL  CLOUDY    67  44  43 S3        29.85F
ST CHARLES     CLOUDY    65  43  44 S8        29.85F

$$
MOZ072>076-082>087-097>100-106>115-020400-
...SOUTH CENTRAL AND SOUTHEAST MISSOURI...

CITY           SKY/WX    TMP DP  RH WIND       PRES   REMARKS
CAPE GIRARDEAU CLOUDY    65  52  62 S13       29.93R
FARMINGTON     MOCLDY    63  48  59 S9        29.93R
POPLAR BLUFF   PTCLDY    64  57  78 SE8       29.90F
WEST PLAINS    HVY RAIN  63  60  90 S15G22    29.92R FOG

$$



USA.gov is the U.S. government's official web portal to all federal, state and local government web resources and services.